Other Public Products
Issued by NWS Charleston, SC

Current Version | Previous Version | Graphics & Text | Print | Product List | Glossary On
Versions: 1 2 3 4 5 6 7 8 9 10 11 12 13 14 15 16 17 18 19 20 21 22 23 24 25 26 27 28 29 30 31 32 33 34 35 36 37 38 39 40 41 42 43 44 45 46 47 48 49 50
292
FPUS82 KCHS 240312
OPUCHS

TEST...KCHS/KSAV Gateway Observations...TEST
National Weather Service Charleston SC
1000 PM EST THU NOV 23 2017

NOTE: "fair" indicates few or no clouds below 12,000 feet with no
significant weather and/or obstructions to visibility.

SCZ050-WAZ558-NCZ071-TXZ119-213-PAZ071-DCZ001-FLZ074-172-MI076-
NYZ176-178-MAZ016-IL014-TNZ027-NJZ106-GAZ044-MD014-240400-

...Gateway Observations for Charleston International...

CITY           SKY/WX    TMP DP  RH WIND       PRES   REMARKS
Chas Airport   MOCLDY    46  44  93 N5        30.02S
Seattle        PTCLDY    49  45  86 S15       29.92R
Charlotte      PTCLDY    42  32  67 CALM      30.05S
Dallas DFW     PTCLDY    53  32  44 S5        30.03S
Dallas Love    PTCLDY    54  31  41 SE8       30.05S
Philladelphia  CLEAR     35  22  58 W6        30.08R WCI  30
Wash National  CLEAR     37  27  67 SW3       30.09R
Baltimore      CLEAR     30  24  78 CALM      30.07S
Miami          CLOUDY    74  71  91 SW8       29.87S
Detroit        CLOUDY    35  26  69 S5        30.00S WCI  31
Newark         PTCLDY    35  21  56 W8        30.05R WCI  29
Laguardia      PTCLDY    40  22  48 NW9       30.04R WCI  34
J F K          PTCLDY    38  23  55 W13       30.05R WCI  30
Boston Logan   PTCLDY    36  18  48 N7        29.98S WCI  30
Ft. Lauderdale CLOUDY    74  73  97 SW6       29.84F
Chicago O`Hare CLEAR     37  26  64 SW6       29.90F WCI  32
Chicago Midway CLEAR     38  27  64 SW6       29.92F WCI  33
Houston Bush   CLEAR     49  39  68 CALM      30.09F
Houston Hobby  CLEAR     49  42  77 CALM      30.09S
Nashville      CLEAR     37  28  70 S3        30.04S
Atlanta        PTCLDY    50  40  68 E3        30.02R

$$

GAZ044-118-TXZ119-213-NCZ071-DCZ001-MDZ014-506-PAZ021-071-NJZ106-
NYZ176-178-MAZ106-OHZ011-021-055-MIZ076-KYZ091-ILZ014-INZ047-
MNZ060-ONZ431-240400-

...Gateway Observations for Savannah International...

CITY           SKY/WX    TMP DP  RH WIND       PRES   REMARKS
Savannah Arpt  CLOUDY    48  45  89 NE9       30.01F
Atlanta        PTCLDY    50  40  68 E3        30.02R
Charlotte      PTCLDY    42  32  67 CALM      30.05S
Dallas DFW     PTCLDY    53  32  44 S5        30.03S
Houston Bush   CLEAR     49  39  68 CALM      30.09F
Wash National  CLEAR     37  27  67 SW3       30.09R
Wash Dulles    CLEAR     29  25  85 CALM      30.07S
Baltimore      CLEAR     30  24  78 CALM      30.07S
Philadelphia   CLEAR     35  22  58 W6        30.08R WCI  30
Newark         PTCLDY    35  21  56 W8        30.05R WCI  29
Laguardia      PTCLDY    40  22  48 NW9       30.04R WCI  34
J F K          PTCLDY    38  23  55 W13       30.05R WCI  30
Boston         PTCLDY    36  18  48 N7        29.98S WCI  30
Pittsburg      PTCLDY    35  22  58 SW3       30.01F
Akron          CLEAR     31  21  66 SW6       30.01S WCI  25
Cleveland      PTCLDY    34  24  67 S7        30.04R WCI  28
Cincinnati     CLEAR     35  25  66 SW5       30.02S WCI  31
Columbus       CLEAR     32  23  69 CALM      30.02S
Detroit        CLOUDY    35  26  69 S5        30.00S WCI  31
Chicago O`Hare CLEAR     37  26  64 SW6       29.90F WCI  32
Minneapolis    PTCLDY    38  29  70 S6        29.65F WCI  33
Indianapolis   CLEAR     35  20  54 S5        30.01F WCI  31
Toronto Canada CLOUDY    36  25  64 W12       29.93R WCI  27

$$




USA.gov is the U.S. government's official web portal to all federal, state and local government web resources and services.